HELLAS-SAT 2

Last updated on Sat Aug 15 2026 00:02:57 GMT+0000 (Coordinated Universal Time)

1 27811U 03020A 26226.35211380 -.00000100 00000+0 00000+0 0 9995 2 27811 7.4951 67.1707 0005581 114.4955 257.8488 1.00272066 43433
UTC large
Height (km)
Speed (km/s)
/
Latitude / Longitude
Inclination (degrees)
Orbital Period (minutes)
Azimuth
Elevation
Range (km)
Doppler Factor

Next 0 passes for location: London (51.5072 / 0.1276)

No passes found over London.
HELLAS-SAT 2